Date String (YYYY-MM-DD hh:mm:ss) UTC,Instrument flags,Ambient pressure (hPa),Sample flow (lpm),Bypass flow (lpm),Sample temperature (°C),Ambient temperature (°C),ASC tube jacket temperature (°C),LED temperature (°C),Box temperature (°C),Sample RH (%),Span deviation,Mass concentration (μg/m³),Mass concentration (μg/m³),Mass concentration (μg/m³)
DateTimeUTC,F1_M11,P_M11,Q1_M11,Q2_M11,T1_M11,T2_M11,T3_M11,T4_M11,T5_M11,U1_M11,ZSPAN_M11,X0_M11,X2_M11,X1_M11
2021-08-20 08:00:00,,0824.1,4.98,0.00,31.1,29.3,00.0,39.5,32.3,34.0,0000.5,0012.85,0006.86,0006.19
2021-08-20 08:01:00,,0824.1,5.02,0.00,31.2,29.3,00.0,39.5,32.3,34.0,0000.3,0011.95,0006.92,0006.27
2021-08-20 08:02:00,,0824.1,4.99,0.00,31.2,29.4,00.0,39.6,32.3,34.2,0000.0,0011.92,0007.00,0006.34
2021-08-20 08:03:00,,0824.2,5.01,0.00,31.2,29.2,00.0,39.7,32.2,34.5,0000.2,0012.07,0007.10,0006.43
2021-08-20 08:04:00,,0824.3,4.99,0.00,31.1,27.5,00.0,39.7,31.8,34.7,0000.1,0012.29,0007.23,0006.54
2021-08-20 08:05:00,,0824.4,5.01,0.00,30.9,26.5,00.0,39.7,31.5,35.0,0000.0,0012.35,0007.33,0006.63
2021-08-20 08:06:00,,0824.5,5.00,0.00,30.9,26.6,00.0,39.7,31.5,35.3,0000.3,0012.50,0007.45,0006.72
2021-08-20 08:07:00,,0824.8,5.00,0.00,31.0,27.0,00.0,39.6,31.7,34.8,0000.2,0012.54,0007.47,0006.75
2021-08-20 08:08:00,,0824.9,5.01,0.00,31.2,27.4,00.0,39.6,31.8,34.1,0000.1,0012.36,0007.43,0006.74
2021-08-20 08:09:00,,0824.9,4.99,0.00,31.2,27.7,00.0,39.6,31.8,30.3,0000.2,0011.73,0007.28,0006.62
2021-08-20 08:10:00,,0824.9,5.00,0.00,31.3,27.9,00.0,39.7,31.8,27.0,0000.4,0011.31,0006.99,0006.36
2021-08-20 08:11:00,,0824.9,5.00,0.00,31.2,28.1,00.0,39.7,31.8,22.0,0000.5,0011.48,0006.70,0006.02
2021-08-20 08:12:00,,0825.0,5.00,0.00,31.2,28.2,00.0,39.7,31.9,21.1,0000.9,0011.64,0006.50,0005.71
2021-08-20 08:13:00,,0824.9,5.00,0.00,31.2,28.3,00.0,39.8,31.8,21.0,0001.4,0011.47,0006.24,0005.34
2021-08-20 08:14:00,,0824.8,5.00,0.00,31.1,28.4,00.0,39.8,31.8,21.6,0001.3,0011.40,0005.94,0004.96
2021-08-20 08:15:00,,0824.8,4.99,0.00,31.1,28.4,00.0,39.8,31.7,21.7,0001.7,0011.13,0005.59,0004.55
2021-08-20 08:16:00,,0824.9,5.01,0.00,31.0,28.4,00.0,39.8,31.7,22.1,0002.2,0011.00,0005.26,0004.15
2021-08-20 08:17:00,,0824.9,5.00,0.00,31.0,28.4,00.0,39.8,31.7,22.5,0002.5,0010.89,0004.96,0003.74
2021-08-20 08:18:00,,0824.9,5.01,0.00,30.9,28.4,00.0,39.8,31.6,23.0,0002.9,0010.96,0004.76,0003.39
2021-08-20 08:19:00,,0824.9,4.99,0.00,30.9,28.4,00.0,39.8,31.6,23.0,0000.1,0010.99,0004.54,0002.96
2021-08-20 08:20:00,,0824.9,5.01,0.00,30.8,28.4,00.0,39.8,31.6,23.1,0000.0,0011.10,0004.42,0002.45
2021-08-20 08:21:00,,0824.9,4.99,0.00,30.8,28.4,00.0,39.8,31.7,23.4,0000.0,0012.02,0004.52,0002.26
2021-08-20 08:22:00,,0824.8,5.00,0.00,30.8,28.4,00.0,39.8,31.7,23.3,0000.0,0012.96,0004.61,0002.24
2021-08-20 08:23:00,,0824.8,5.00,0.00,30.7,28.5,00.0,39.8,31.7,22.5,0000.0,0012.30,0004.53,0002.22
2021-08-20 08:24:00,,0824.8,5.00,0.00,30.7,28.5,00.0,39.8,31.7,22.3,0000.0,0012.05,0004.46,0002.15
2021-08-20 08:25:00,,0824.9,5.00,0.00,30.7,28.5,00.0,39.8,31.8,21.8,0000.0,0011.78,0004.41,0002.08
2021-08-20 08:26:00,,0824.9,5.00,0.00,30.7,28.5,00.0,39.8,31.8,21.8,0000.0,0011.66,0004.37,0002.02
2021-08-20 08:27:00,,0824.9,4.99,0.00,30.7,28.6,00.0,39.8,31.8,21.2,0000.0,0011.37,0004.31,0001.95
2021-08-20 08:28:00,,0825.0,5.00,0.00,30.7,28.6,00.0,39.7,31.8,21.0,0000.0,0011.02,0004.17,0001.86
2021-08-20 08:29:00,,0825.1,5.01,0.00,30.7,28.7,00.0,39.7,31.9,20.9,0000.0,0010.39,0003.93,0001.69
2021-08-20 08:30:00,,0825.1,4.99,0.00,30.7,28.7,00.0,39.7,31.9,20.8,0000.0,0009.87,0003.71,0001.56
2021-08-20 08:31:00,,0825.1,5.00,0.00,30.7,28.7,00.0,39.7,31.9,20.4,0000.0,0009.45,0003.51,0001.43
2021-08-20 08:32:00,,0825.1,5.01,0.00,30.7,28.8,00.0,39.7,32.0,20.0,0000.0,0008.55,0003.23,0001.25
2021-08-20 08:33:00,,0825.1,4.99,0.00,30.7,28.8,00.0,39.7,32.0,20.1,0000.0,0006.50,0002.85,0001.06
2021-08-20 08:34:00,,0825.0,5.00,0.00,30.7,28.9,00.0,39.7,32.0,19.9,0000.0,0006.24,0002.64,0000.97
2021-08-20 08:35:00,,0825.0,5.01,0.00,30.7,29.0,00.0,39.7,32.0,19.9,0000.0,0005.94,0002.37,0000.88
2021-08-20 08:36:00,,0824.9,4.99,0.00,30.7,29.0,00.0,39.7,32.0,19.7,0000.0,0005.38,0002.12,0000.80
2021-08-20 08:37:00,,0824.9,5.00,0.00,30.7,29.0,00.0,39.7,32.0,19.4,0000.0,0004.88,0001.86,0000.72
2021-08-20 08:38:00,,0824.8,5.00,0.00,30.6,29.0,00.0,39.7,32.0,19.1,0000.0,0004.52,0001.68,0000.66
2021-08-20 08:39:00,,0824.7,4.98,0.00,30.6,29.1,00.0,39.7,32.0,19.8,0000.0,0004.07,0001.47,0000.59
2021-08-20 08:40:00,,0824.8,5.01,0.00,30.6,29.1,00.0,39.7,32.1,19.8,0000.0,0003.99,0001.40,0000.55
2021-08-20 08:41:00,,0824.9,5.00,0.00,30.6,29.2,00.0,39.7,32.1,19.8,0000.0,0003.79,0001.32,0000.50
2021-08-20 08:42:00,,0825.0,5.00,0.00,30.6,29.2,00.0,39.7,32.1,19.7,0000.0,0003.43,0001.17,0000.45
2021-08-20 08:43:00,,0825.1,4.99,0.00,30.6,29.2,00.0,39.7,32.1,20.4,0000.0,0003.20,0001.07,0000.42
2021-08-20 08:44:00,,0825.2,5.00,0.00,30.6,29.2,00.0,39.7,32.0,21.2,0000.0,0003.20,0001.06,0000.40
2021-08-20 08:45:00,,0825.1,5.00,0.00,30.5,29.2,00.0,39.7,32.0,22.2,0000.0,0002.78,0001.01,0000.39
2021-08-20 08:46:00,,0825.1,5.00,0.00,30.5,29.2,00.0,39.7,32.0,22.3,0000.0,0002.28,0000.99,0000.41
2021-08-20 08:47:00,,0825.1,5.00,0.00,30.5,29.2,00.0,39.7,32.0,21.9,0000.0,0002.28,0001.01,0000.42
2021-08-20 08:48:00,,0825.1,4.99,0.00,30.5,29.2,00.0,39.7,32.0,21.9,0000.0,0002.28,0001.01,0000.44
2021-08-20 08:49:00,,0825.0,5.01,0.00,30.5,29.2,00.0,39.7,32.0,21.8,0000.0,0002.30,0001.00,0000.46
2021-08-20 08:50:00,,0824.9,5.00,0.00,30.5,29.2,00.0,39.7,32.0,21.6,0000.0,0002.30,0001.00,0000.47
2021-08-20 08:51:00,,0824.9,5.00,0.00,30.5,29.2,00.0,39.6,32.0,21.4,0000.0,0002.10,0000.96,0000.47
2021-08-20 08:52:00,,0824.8,4.99,0.00,30.5,29.2,00.0,39.6,32.0,21.0,0000.0,0002.20,0000.99,0000.47
2021-08-20 08:53:00,,0824.7,5.01,0.00,30.4,28.5,00.0,39.6,31.8,20.7,0000.0,0002.25,0001.01,0000.48
2021-08-20 08:54:00,,0824.6,5.00,0.00,30.3,26.5,00.0,39.6,31.3,20.9,0000.0,0002.24,0000.98,0000.48
2021-08-20 08:55:00,,0824.5,5.00,0.00,30.1,26.0,00.0,39.5,31.1,21.0,0000.0,0002.25,0000.96,0000.47
2021-08-20 08:56:00,,0824.9,5.00,0.00,30.0,26.3,00.0,39.4,31.0,20.7,0000.0,0002.15,0000.91,0000.45
2021-08-20 08:57:00,,0824.4,5.00,0.00,29.9,26.7,00.0,39.3,31.1,20.6,0000.0,0002.04,0000.84,0000.40
2021-08-20 08:58:00,,0824.5,4.99,0.00,29.8,27.1,00.0,39.3,31.2,20.5,0000.0,0001.86,0000.74,0000.35
2021-08-20 08:59:00,,0824.5,5.00,0.00,29.8,27.4,00.0,39.2,31.3,20.6,0000.0,0001.62,0000.68,0000.32
